Tracking 19638 objects as of 21-Apr-2019
HD Live streaming from Space Station
objects crossing your sky now

THORAD AGENA D DEB

Track THORAD AGENA D DEB now!
10-day predictions


NORAD ID: 5154
Int'l Code: 1970-025JX
Perigee: 727.6 km
Apogee: 738.7 km
Inclination: 99.8 °
Period: 99.3 minutes
Semi major axis: 7104 km
RCS: 0.0493 m2 (small)
Launch date: April 8, 1970
Source: United States (US)
Launch site: AIR FORCE WESTERN TEST RANGE (AFWTR)

Note: This is SATELLITE DEBRIS
aabbcc
Your satellite tracking list
Your tracking list is empty




NASA's NSSDC Master Catalog

Two Line Element Set (TLE):
1  5154U 70025JX  19111.59506114  .00001816  00000-0  48501-3 0  9990
2  5154  99.8414 346.9074 0007833 100.7883 259.4188 14.49878916489581
Source of the keplerian elements: AFSPC